Location: Coll
(42.4728°N, 0.7714°E)
Time: 07:19:19
(UTC+00:00)

SAR-Lupe-4 - Pass Details

Date: 23 October 2020
Orbit: 481 x 484 km, 98.2° (Epoch: 22 November)

Event Time Altitude Azimuth Distance (km) Brightness Sun altitude
Rises 05:01:37 0° 172° (S) 2,535 7.3 -15.0°
Reaches altitude 10° 05:03:41 10° 176° (S) 1,660 6.3 -14.7°
Maximum altitude 05:07:13 63° 258° (WSW) 543 3.5 -14.0°
Drops below altitude 10° 05:10:47 10° 340° (NNW) 1,672 6.1 -13.4°
Sets 05:12:52 0° 344° (NNW) 2,556 7.0 -13.0°
